Regional Weather Roundup
Issued by NWS

Home | Current Version | Previous Version | Graphics & Text | Print | Product List | Glossary On
Versions: 1 2 3 4 5 6 7 8 9 10 11 12 13 14 15 16 17 18 19 20 21 22 23 24 25 26 27 28 29 30 31 32 33 34 35 36 37 38 39 40 41 42 43 44 45 46 47 48 49 50
000
ASUS43 KMKX 250000
RWRWI

WISCONSIN REGIONAL WEATHER ROUNDUP
NATIONAL WEATHER SERVICE MILWAUKEE/SULLIVAN WI
700 PM CDT FRI OCT 24 2014

NOTE: "FAIR" INDICATES FEW OR NO CLOUDS BELOW 12,000 FEET WITH NO
SIGNIFICANT WEATHER AND/OR OBSTRUCTIONS TO VISIBILITY.

WIZ001-002-006>008-014>016-023>028-250100-
NORTHWEST WISCONSIN

CITY           SKY/WX    TMP DP  RH WIND       PRES   REMARKS
SUPERIOR ARPT  PTCLDY    63  52  67 SW12G17   29.76R
ASHLAND        CLEAR     57  51  80 SW12      29.78S
6HR MIN TEMP:  57; 6HR MAX TEMP:  70;

HAYWARD        CLOUDY    57  52  83 S10       29.83S
6HR MIN TEMP:  57; 6HR MAX TEMP:  66;

SIREN          MOCLDY    56  52  86 S6        29.83S
CUMBERLAND     PTCLDY    54  52  94 S5        29.85S
RICE LAKE      CLOUDY    56  54  90 S7        29.86F
CHETEK         CLOUDY    56  55  94 CALM      29.86S
LADYSMITH      CLOUDY    57  52  83 S7        29.87S
EAU CLAIRE     NOT AVBL
MENOMONIE      CLOUDY    57  56  94 S5        29.87S FOG
NEW RICHMOND   MOCLDY    55  54  96 S7        29.85S FOG
OSCEOLA        MOCLDY    56  56 100 S3        29.87S
$$

WIZ003>005-009-010-017-018-250100-
NORTH CENTRAL WISCONSIN

CITY           SKY/WX    TMP DP  RH WIND       PRES   REMARKS
MANITOWISH WTR CLOUDY    56  49  77 SW14      29.82S
ARBOR VITAE    CLOUDY    57  50  77 SW8       29.84R
WOODRUFF       CLOUDY    57  50  77 SW8       29.84R
RHINELANDER    CLOUDY    54  47  77 SW8       29.87S
6HR MIN TEMP:  52; 6HR MAX TEMP:  60;

EAGLE RIVER    CLOUDY    56  44  64 SW9       29.84R
LAND O LAKES   CLOUDY    57  44  62 SW7       29.83S
PHILLIPS       CLOUDY    56  50  80 S9        29.84S
TOMAHAWK       CLOUDY    55  47  76 CALM      29.87S
MEDFORD        CLOUDY    54  49  85 S5        29.87S
MERRILL        CLOUDY    55  49  78 SW5       29.88S
$$

WIZ029-030-035-036-043>047-250100-
CENTRAL WISCONSIN

CITY           SKY/WX    TMP DP  RH WIND       PRES   REMARKS
WAUSAU         CLOUDY    56  49  77 SW3       29.88R
6HR MIN TEMP:  48; 6HR MAX TEMP:  58;

MOSINEE        CLOUDY    54  52  94 S6        29.89S
MARSHFIELD     CLOUDY    57  51  80 SW5       29.88S
6HR MIN TEMP:  50; 6HR MAX TEMP:  58;

STEVENS POINT  CLOUDY    55  49  83 S6        29.89F
WAUPACA        MOCLDY    55  52  90 CALM      29.90S
WAUTOMA        NOT AVBL
WISC RAPIDS    CLOUDY    57  50  77 S5        29.91R
6HR MIN TEMP:  50; 6HR MAX TEMP:  60;

CAMP DOUGLAS   CLOUDY    59  59 100 SW6       29.90R
$$

WIZ011>013-019>022-031-037>040-048>050-250100-
NORTHEAST WISCONSIN

CITY           SKY/WX    TMP DP  RH WIND       PRES   REMARKS
ANTIGO         CLOUDY    52  49  90 S6        29.88S
SHAWANO        CLOUDY    54  49  84 S3        29.89F
OCONTO         CLEAR     49  49 100 S6        29.89F
STURGEON BAY   CLOUDY    48  46  93 S9        29.91S VSB 3/4
6HR MIN TEMP:  48; 6HR MAX TEMP:  57;

GREEN BAY      CLOUDY    50  49  96 S6        29.90F
6HR MIN TEMP:  50; 6HR MAX TEMP:  54;

MANITOWOC      NOT AVBL
APPLETON       MOCLDY    52  48  87 VRB3      29.90F
CLINTONVILLE   MOCLDY    52  50  93 S5        29.89F
OSHKOSH        CLOUDY    54  51  90 S7        29.91S
6HR MIN TEMP:  52; 6HR MAX TEMP:  57;

$$

WIZ032>034-041-042-053>061-250100-
SOUTHWEST WISCONSIN

CITY           SKY/WX    TMP DP  RH WIND       PRES   REMARKS
LA CROSSE      CLOUDY    60  56  86 S6        29.89S
6HR MIN TEMP:  60; 6HR MAX TEMP:  66;

SPARTA         CLOUDY    59  55  87 CALM      29.91R
VIROQUA        CLOUDY    57  57 100 SW5       29.92R
BOSCOBEL       CLOUDY    59  57  93 SW3       29.92R FOG
6HR MIN TEMP:  59; 6HR MAX TEMP:  66; 6HR PCP: TRACE;

PRAIRIE DU CHI CLOUDY    60  56  87 CALM      29.92R
PLATTEVILLE    CLOUDY    60  55  84 S3        29.93R
$$

WIZ056-057-062-063-064-067-068-250100-
SOUTH CENTRAL WISCONSIN

CITY           SKY/WX    TMP DP  RH WIND       PRES   REMARKS
REEDSBURG      CLOUDY    59  51  76 S7        29.91R
BARABOO/DELLS  CLOUDY    59  49  68 S7        29.91R
LONE ROCK      NOT AVBL
MINERAL POINT  CLOUDY    59  54  82 SW3       29.93R
MADISON        CLOUDY    60  51  72 S3        29.93R
6HR MIN TEMP:  54; 6HR MAX TEMP:  61;

MIDDLETON      CLOUDY    60  49  66 SW3       29.93R
WATERTOWN      CLOUDY    54  51  91 CALM      29.92S
MONROE         MOCLDY    55  50  82 S6        29.92R
JANESVILLE     CLOUDY    57  50  77 SE6       29.92S
$$

WIZ051-052-058>065-066-070>072-250100-
SOUTHEAST WISCONSIN

CITY           SKY/WX    TMP DP  RH WIND       PRES   REMARKS
MILWAUKEE      MOCLDY    54  50  86 S6        29.94S
6HR MIN TEMP:  52; 6HR MAX TEMP:  62;

WAUKESHA       PTCLDY    54  48  82 S3        29.95S
MILWAUKEE/TIMM NOT AVBL
RACINE         MOCLDY    53  50  89 S5        29.96S FOG
6HR MIN TEMP:  52; 6HR MAX TEMP:  61;

BURLINGTON     PTCLDY    51  48  91 CALM      29.94S
KENOSHA        CLOUDY    53  50  89 SE5       29.95S FOG
6HR MIN TEMP:  53; 6HR MAX TEMP:  63;

FOND DU LAC    CLOUDY    55  49  80 S8        29.92R
6HR MIN TEMP:  52; 6HR MAX TEMP:  57;

SHEBOYGAN      PTCLDY    51  48  89 CALM      29.93R
6HR MIN TEMP:  50; 6HR MAX TEMP:  63;

WEST BEND      CLOUDY    55  46  71 S6        29.93R
JUNEAU         CLOUDY    54  49  85 S5        29.94R
$$

LSZ147-162-250100-
LAKE SUPERIOR

STATION/POSITION TIME  TEMP    WIND        PRES    WAVE
                       AIR SEA DIR/SP/G            HT/PER
                 (UTC) (F)     (DEG/KT/KT) (MB)    (FT/S)
W MID LAKE BUOY  2250   49 47  170/  4/  6 1006.4F   1
DEVILS ISLAND    2300   60     200/  7/ 11 1006.6F
PORT WING        2300   64     190/ 11/ 17 1007.5R
SAXON HARBOR     2340   62     200/ 10/ 16 1008.1R
$$

LMZ867-665-643>646-250100-
LAKE MICHIGAN

STATION/POSITION TIME  TEMP    WIND        PRES    WAVE
                       AIR SEA DIR/SP/G            HT/PER
                 (UTC) (F)     (DEG/KT/KT) (MB)    (FT/S)
CHAMBERS ISLAND  2300   51     180/  3/  7 1012.5F
N MID LAKE BUOY  2250   49 51  200/ 16/ 17 1012.9F   2/ 4
NORTHPORT PIER   2300   50     160/  5/ 10 1012.5S
SISTER BAY       2342          180/ 13/ 16   N/A
ALGOMA LAKESHORE 2156          230/ 17/ 20   N/A
KEWAUNEE LAKESHO 2300   50     180/ 11/ 13 1012.4S
SHEBOYGAN LAKESH 2300   51 51  180/ 12/ 12 1013.9S
PORT WASHINGTON  2300   52     180/  6/  7 1014.2S
ATWATER BUOY     2300   53     170/ 10/ 12 1014.7F
MILWAUKEE LAKESH 2300   52     150/ 12/ 13   N/A
S MID LAKE BUOY  2250   53 54  140/  6/  6 1014.8F   0
KENOSHA   LAKESH 2300   53     160/  7/  8 1014.2S
$$

TC  - TEMPERATURE IN CELSIUS
VSB - VISIBILITY IN STATUTE MILES
WCI - WIND CHILL INDEX
HX  - HEAT INDEX




USA.gov is the U.S. government's official web portal to all federal, state and local government web resources and services.